[[{"header":{"parameterUnit":"m.s-1","parameterCategory":2,"la1":30.2991,"la2":30.254,"lo1":-89.0895,"lo2":-89.0444,"dy":0.0017,"dx":0.0017,"nx":28,"ny":28,"refTime":"2025-05-28T03:00:00:Z","depth":"0","parameterNumber":2,"parameterNumberName":"U-component_of_CURRENTS"},"data":[0,0,0,0,0,0,0,0,0,0,0,0,0,0,0,0,0,0,0,0,0,0,0,0,0,0,0,0,0,0,0,0,0,0,0,0,0,0,0,0,0,0,0,0,0,0,0,0,0,0,0,0,0,0,0,0,0,0,0.3377,0.3378,0,0.348,0.3481,0.3483,0.3507,0.3506,0.3506,0.3505,0.3532,0.3534,0.3535,0,0,0,0,0,0,0,0,0,0,0,0,0,0.3319,0.3319,0.3377,0.3378,0.3379,0.348,0.3481,0.3483,0.3507,0.3506,0.3505,0.3504,0.3532,0.3534,0.3535,0,0,0,0,0,0,0,0,0,0,0,0,0,0.3377,0.3319,0.3376,0.3402,0.3405,0.348,0.3482,0.3483,0.3508,0.3506,0.3505,0.3504,0.3531,0.3533,0.3536,0.3576,0,0,0.3543,0.3544,0,0,0,0,0,0,0,0,0.3373,0.3379,0.3397,0.34,0.3404,0.3478,0.3471,0.351,0.3508,0.3471,0.3505,0.3503,0.3507,0.3511,0.3537,0.3577,0.3578,0.3543,0.3544,0.3545,0.3546,0,0,0,0,0,0,0,0.3369,0.3375,0.3419,0.3398,0.3403,0.3449,0.3455,0.348,0.3495,0.3474,0.3475,0.3484,0.3508,0.3535,0.3538,0.3579,0.3543,0.3545,0.3546,0.3547,0.3684,0.3687,0,0,0,0,0,0,0.3348,0.3371,0.3416,0.3422,0.3383,0.345,0.3457,0.3457,0.3496,0.3501,0.3485,0.3485,0.3532,0.3535,0.3539,0.3631,0.3545,0.3547,0.3549,0.3682,0.3685,0.3687,0,0,0,0,0,0,0.3346,0.3351,0.3412,0.3398,0.3409,0.3451,0.3452,0.346,0.3487,0.3506,0.3509,0.3504,0.3531,0.3535,0.3574,0.363,0.3549,0.3551,0.368,0.3683,0.3686,0.3788,0,0,0,0,0,0,0.3344,0.3349,0.335,0.3396,0.3409,0.3469,0.3453,0.3463,0.3493,0.3494,0.3523,0.3524,0.353,0.3571,0.3576,0.3632,0.3552,0.3677,0.3681,0.3685,0.3781,0.3794,0.3805,0,0,0,0,0,0.3341,0.3349,0.3349,0.3355,0.3405,0.347,0.3482,0.3509,0.3495,0.3525,0.3539,0.3523,0.3601,0.3574,0.358,0.3638,0.3675,0.368,0.3685,0.3776,0.3791,0.3804,0,0,0,0,0,0,0.3331,0.3353,0.3354,0.3369,0.3419,0.3473,0.3503,0.3514,0.3551,0.3547,0.355,0.3555,0.3617,0.3608,0.3577,0.3689,0.3637,0.3643,0.3704,0.3719,0.373,0.3749,0.3554,0,0,0,0,0,0.3326,0.3332,0.3374,0.339,0.3414,0.3457,0.3486,0.3508,0.3543,0.3559,0.3578,0.3601,0.3646,0.3662,0.3696,0.375,0.3773,0.3791,0.3802,0.3812,0.3832,0.3953,0.3978,0.3704,0.3704,0.3704,0,0,0.3326,0.334,0.3344,0.3388,0.3427,0.3483,0.3473,0.3525,0.3576,0.3555,0.3622,0.3645,0.367,0.3743,0.3768,0.3738,0.3894,0.3819,0.3827,0.3842,0.3961,0.3988,0.4012,0.3708,0.3707,0.3706,0,0,0.3341,0.3346,0.3362,0.3411,0.3467,0.3504,0.3517,0.3579,0.3611,0.3676,0.3684,0.374,0.3787,0.3837,0.3861,0.3955,0.3957,0.3958,0.4032,0.4149,0.4173,0.4195,0.4222,0.4245,0.3959,0.3959,0.396,0,0.3342,0.3367,0.3385,0.3431,0.3479,0.3512,0.357,0.362,0.3686,0.3737,0.3705,0.3844,0.3843,0.397,0.3992,0.3986,0.4023,0.3976,0.4168,0.419,0.421,0.4233,0.4257,0.3965,0.3964,0.3964,0.3963,0,0.3378,0.3412,0.3437,0.3498,0.3554,0.3614,0.3682,0.3745,0.3775,0.383,0.3955,0.3984,0.4068,0.4079,0.4055,0.421,0.4176,0.4174,0.4135,0.4245,0.426,0.4284,0.3973,0.3971,0.3969,0.3968,0,0,0.3347,0.344,0.345,0.3507,0.3598,0.3657,0.3751,0.3866,0.3958,0.402,0.4152,0.4216,0.4241,0.427,0.4276,0.4358,0.4494,0.4321,0.4325,0.4351,0.4708,0.4495,0.45,0.4543,0.4549,0.4553,0.4646,0,0.3376,0.3468,0.3506,0.3621,0.3691,0.3767,0.3861,0.397,0.4061,0.4196,0.4266,0.4384,0.4314,0.4372,0.4446,0.4505,0.4569,0.4466,0.4594,0.4597,0.4401,0.4526,0.4358,0.4412,0.4669,0.4673,0.4676,0,0.3393,0.3467,0.3569,0.3713,0.375,0.3818,0.4003,0.4095,0.428,0.436,0.4495,0.4553,0.4686,0.461,0.477,0.4713,0.4711,0.4734,0.4739,0.4528,0.4431,0.4353,0.4446,0.4404,0.4712,0.471,0.4707,0,0.3377,0.3508,0.3592,0.3644,0.3807,0.3876,0.3965,0.4144,0.4266,0.4482,0.4594,0.4756,0.4839,0.4923,0.4918,0.488,0.5074,0.5031,0.4835,0.4817,0.4689,0.4649,0.4763,0.5151,0.5151,0.5151,0.5151,0,0.3391,0.3465,0.3593,0.3654,0.3794,0.3888,0.406,0.4183,0.4383,0.4519,0.4669,0.4799,0.4929,0.5029,0.5018,0.4986,0.5156,0.4872,0.4855,0.4708,0.4671,0.4635,0.4619,0.5154,0.5153,0.5153,0.5152,0,0.3367,0.3435,0.3567,0.3736,0.379,0.3895,0.4102,0.4238,0.4407,0.4594,0.4668,0.4884,0.4975,0.5054,0.5175,0.5076,0.4967,0.5034,0.4793,0.4742,0.4442,0.4435,0.4294,0.4194,0.484,0.4836,0.4832,0,0.3361,0.3422,0.3619,0.3699,0.3774,0.3933,0.4049,0.4243,0.4364,0.4607,0.4681,0.485,0.4891,0.4989,0.492,0.4884,0.4813,0.4671,0.455,0.4422,0.4409,0.4233,0.4149,0.4421,0.4414,0.4409,0.4405,0,0.3395,0.3458,0.3575,0.3722,0.3844,0.3978,0.4118,0.4207,0.4388,0.4491,0.4589,0.4646,0.4721,0.4618,0.4573,0.4527,0.4471,0.4545,0.4551,0.4195,0.3887,0.3781,0.4309,0.4356,0.4361,0.4364,0.4367,0.4369,0.3426,0.3499,0.3628,0.3748,0.3862,0.392,0.3934,0.4043,0.412,0.4137,0.4333,0.4291,0.4376,0.4273,0.4217,0.4061,0.4045,0.3945,0.3978,0.3833,0.3638,0.3978,0.3907,0.3909,0.3911,0.3913,0.3914,0,0.3447,0.3513,0.3637,0.3722,0.3734,0.3828,0.3897,0.3822,0.3735,0.3842,0.3822,0.3844,0.377,0.3833,0.3748,0.3586,0.3445,0.3517,0.3345,0.3318,0.3777,0.3662,0.3369,0.3369,0.3369,0.3369,0.3369,0.3369,0.3465,0.3539,0.3569,0.3543,0.3558,0.3462,0.342,0.3319,0.3316,0.3204,0.318,0.3261,0.3522,0.3595,0.3468,0.3368,0.3217,0.2989,0.3048,0.3509,0.3555,0.3598,0.3491,0.3167,0.3167,0.2452,0.2447,0.2444]},{"header":{"parameterUnit":"m.s-1","parameterCategory":2,"la1":30.2991,"la2":30.254,"lo1":-89.0895,"lo2":-89.0444,"dy":0.0017,"dx":0.0017,"nx":28,"ny":28,"refTime":"2025-05-28T03:00:00:Z","depth":"0","parameterNumber":3,"parameterNumberName":"V-component_of_CURRENTS"},"data":[0,0,0,0,0,0,0,0,0,0,0,0,0,0,0,0,0,0,0,0,0,0,0,0,0,0,0,0,0,0,0,0,0,0,0,0,0,0,0,0,0,0,0,0,0,0,0,0,0,0,0,0,0,0,0,0,0,0,0.0198,0.0198,0,0.0208,0.0209,0.0209,0.0202,0.0201,0.02,0.02,0.0191,0.0191,0.0192,0,0,0,0,0,0,0,0,0,0,0,0,0,0.0213,0.0213,0.0198,0.0198,0.0198,0.0208,0.0209,0.0209,0.0202,0.0201,0.02,0.02,0.0191,0.0191,0.0192,0,0,0,0,0,0,0,0,0,0,0,0,0,0.0216,0.0213,0.0198,0.0194,0.0193,0.0208,0.0209,0.0209,0.0202,0.0201,0.02,0.0199,0.0191,0.0191,0.0192,0.0212,0,0,0.0193,0.0193,0,0,0,0,0,0,0,0,0.0216,0.0216,0.0194,0.0194,0.0193,0.02,0.0211,0.0208,0.0202,0.0201,0.02,0.0199,0.0191,0.0192,0.02,0.0211,0.0211,0.0193,0.0193,0.0194,0.0194,0,0,0,0,0,0,0,0.0216,0.0215,0.0205,0.0194,0.0194,0.0205,0.0204,0.0211,0.0203,0.0201,0.02,0.0197,0.0191,0.0199,0.0199,0.0211,0.0193,0.0193,0.0194,0.0194,0.024,0.0241,0,0,0,0,0,0,0.0208,0.0215,0.0205,0.0205,0.02,0.0205,0.0204,0.0201,0.0203,0.0202,0.0198,0.0197,0.0199,0.0199,0.0199,0.0243,0.0194,0.0194,0.0194,0.0239,0.0241,0.0242,0,0,0,0,0,0,0.0208,0.0207,0.0204,0.0208,0.0208,0.0205,0.0202,0.0202,0.0211,0.02,0.0199,0.0207,0.0198,0.0198,0.0216,0.0242,0.0194,0.0195,0.0238,0.024,0.0241,0.0318,0,0,0,0,0,0,0.0208,0.0207,0.021,0.0208,0.0208,0.0226,0.0202,0.0203,0.0209,0.0208,0.0207,0.0206,0.0198,0.0215,0.0216,0.0241,0.0195,0.0237,0.0239,0.0241,0.0314,0.0322,0.0328,0,0,0,0,0,0.0209,0.0218,0.021,0.0209,0.0209,0.0227,0.0229,0.0225,0.021,0.0228,0.0224,0.0206,0.0227,0.0217,0.0218,0.0243,0.0236,0.0238,0.0241,0.0311,0.032,0.0328,0,0,0,0,0,0,0.0228,0.0218,0.0209,0.0214,0.0224,0.0224,0.0237,0.0231,0.0242,0.024,0.0224,0.0223,0.0246,0.0234,0.0223,0.026,0.0226,0.0229,0.028,0.0288,0.0295,0.0323,0.0195,0,0,0,0,0,0.0232,0.0236,0.0231,0.0238,0.0242,0.024,0.0246,0.0246,0.025,0.0255,0.0253,0.0251,0.0257,0.0263,0.0265,0.0292,0.0276,0.0306,0.0313,0.032,0.0342,0.0351,0.0362,0.0249,0.0249,0.0249,0,0,0.0239,0.0235,0.0237,0.0243,0.0247,0.0277,0.0243,0.026,0.0292,0.0252,0.0293,0.0277,0.0268,0.0297,0.0305,0.0291,0.0336,0.0322,0.0328,0.0348,0.0355,0.0366,0.0376,0.025,0.025,0.025,0,0,0.0267,0.0255,0.0273,0.0289,0.0299,0.0305,0.0311,0.0319,0.0329,0.036,0.0337,0.0343,0.0352,0.0359,0.036,0.0409,0.0371,0.0397,0.0463,0.0472,0.0482,0.049,0.0456,0.0461,0.0404,0.0405,0.0405,0,0.028,0.0303,0.0284,0.0316,0.0343,0.0321,0.0367,0.0377,0.0393,0.0418,0.0383,0.0414,0.0389,0.0441,0.0444,0.0428,0.0409,0.0433,0.0483,0.0491,0.0499,0.0462,0.0466,0.0408,0.0408,0.0408,0.0407,0,0.0329,0.0355,0.037,0.0405,0.0431,0.0467,0.0478,0.0506,0.0505,0.0517,0.0559,0.053,0.0558,0.0534,0.0499,0.0545,0.0504,0.0488,0.0464,0.0515,0.0472,0.0475,0.0414,0.0413,0.0412,0.0411,0,0,0.0348,0.0397,0.0405,0.0454,0.0487,0.0525,0.0574,0.0631,0.0695,0.0677,0.0761,0.0726,0.0709,0.0708,0.0667,0.0653,0.0656,0.0591,0.059,0.0563,0.0645,0.057,0.0566,0.0648,0.065,0.0651,0.0583,0,0.0401,0.0486,0.0493,0.0595,0.0651,0.0664,0.0729,0.0775,0.0802,0.0875,0.0838,0.0892,0.0778,0.0802,0.0769,0.0704,0.0673,0.0674,0.0596,0.0593,0.0527,0.0572,0.0594,0.0534,0.0586,0.0587,0.0587,0,0.0453,0.0514,0.0614,0.0726,0.0753,0.0808,0.0932,0.0988,0.1059,0.109,0.1116,0.1093,0.1083,0.0981,0.0883,0.0888,0.0773,0.0694,0.069,0.0605,0.0527,0.0497,0.0537,0.0412,0.0592,0.0591,0.0591,0,0.0501,0.0603,0.0695,0.0731,0.0842,0.0902,0.0965,0.1053,0.1154,0.1236,0.1319,0.1285,0.1301,0.1168,0.0975,0.0943,0.0851,0.0796,0.0615,0.0606,0.0604,0.0593,0.0527,0.0728,0.0728,0.0728,0.0729,0,0.0561,0.064,0.0729,0.0787,0.0938,0.0977,0.1145,0.1206,0.1338,0.1484,0.1436,0.153,0.1349,0.1265,0.1059,0.0849,0.0917,0.064,0.06,0.0625,0.0618,0.049,0.0404,0.0726,0.0726,0.0727,0.0727,0,0.0601,0.0645,0.0778,0.091,0.0962,0.1073,0.1272,0.1414,0.1496,0.1687,0.1729,0.1736,0.1615,0.1396,0.1186,0.0974,0.0681,0.0673,0.0687,0.0649,0.0347,0.0264,0.0121,0.0047,0.0476,0.0474,0.0472,0,0.0627,0.0692,0.0871,0.098,0.1045,0.1214,0.1361,0.1492,0.1654,0.181,0.1924,0.1865,0.1837,0.1488,0.1132,0.0782,0.0622,0.0559,0.0499,0.0348,0.0228,0.0158,0.0102,0.0512,0.0511,0.051,0.0509,0,0.0706,0.0764,0.0888,0.1099,0.1264,0.1463,0.1661,0.1807,0.197,0.2096,0.2215,0.2187,0.1863,0.1534,0.1058,0.0803,0.0471,0.0524,0.0398,0.0278,0.0174,0.0079,0.0501,0.05,0.0501,0.0502,0.0502,0.0502,0.0781,0.0889,0.1054,0.1257,0.1451,0.1684,0.1838,0.2035,0.2248,0.2415,0.239,0.2369,0.1934,0.1287,0.0933,0.0379,0.0358,0.0214,0.0131,0.0078,0.0,0.0371,0.0303,0.0303,0.0302,0.0302,0.0302,0,0.0893,0.1018,0.121,0.1454,0.1664,0.1744,0.2034,0.2173,0.2373,0.2519,0.2561,0.2377,0.1806,0.126,0.0512,0.0104,-0.0047,-0.0109,-0.0163,-0.02,0.0174,0.0172,0.0038,0.0038,0.0038,0.0039,0.0039,0.0039,0.0964,0.1158,0.1254,0.1589,0.1754,0.201,0.2158,0.2333,0.248,0.2633,0.2664,0.2661,0.2319,0.0914,0.0045,-0.016,-0.0407,-0.051,-0.0638,-0.0341,-0.0315,-0.029,-0.031,-0.0542,-0.0543,-0.0941,-0.0945,-0.0948]}],[{"header":{"parameterUnit":"m.s-1","parameterCategory":2,"la1":30.2991,"la2":30.254,"lo1":-89.0895,"lo2":-89.0444,"dy":0.0017,"dx":0.0017,"nx":28,"ny":28,"refTime":"2025-05-28T03:00:00:Z","depth":"2","parameterNumber":2,"parameterNumberName":"U-component_of_CURRENTS"},"data":[0,0,0,0,0,0,0,0,0,0,0,0,0,0,0,0,0,0,0,0,0,0,0,0,0,0,0,0,0,0,0,0,0,0,0,0,0,0,0,0,0,0,0,0,0,0,0,0,0,0,0,0,0,0,0,0,0,0,0.3111,0.3111,0,0.3192,0.3193,0.3194,0.3207,0.3206,0.3205,0.3204,0.3218,0.3219,0.3221,0,0,0,0,0,0,0,0,0,0,0,0,0,0.3076,0.3076,0.311,0.3111,0.3112,0.3192,0.3193,0.3195,0.3207,0.3206,0.3205,0.3204,0.3218,0.3219,0.3221,0,0,0,0,0,0,0,0,0,0,0,0,0,0.3119,0.3076,0.311,0.3126,0.3129,0.3192,0.3193,0.3195,0.3207,0.3206,0.3204,0.3203,0.3217,0.3219,0.3221,0.326,0,0,0.3227,0.3227,0,0,0,0,0,0,0,0,0.3117,0.3121,0.3123,0.3125,0.3128,0.3186,0.3187,0.3213,0.3208,0.3179,0.3204,0.3203,0.3201,0.3204,0.3226,0.3261,0.3261,0.3227,0.3228,0.3229,0.3229,0,0,0,0,0,0,0,0.3114,0.3118,0.3145,0.3124,0.3127,0.3168,0.3171,0.3193,0.3197,0.3182,0.3182,0.3189,0.3202,0.3225,0.3227,0.3261,0.3227,0.3228,0.323,0.323,0.3357,0.3359,0,0,0,0,0,0,0.3095,0.3115,0.3142,0.3147,0.3117,0.3169,0.3173,0.3171,0.3199,0.3201,0.319,0.3189,0.3222,0.3224,0.3227,0.3309,0.3229,0.323,0.3232,0.3354,0.3357,0.336,0,0,0,0,0,0,0.3094,0.3097,0.3139,0.3132,0.314,0.317,0.3167,0.3173,0.3204,0.3205,0.3207,0.3216,0.3221,0.3224,0.3256,0.3307,0.3231,0.3233,0.3352,0.3355,0.3358,0.3449,0,0,0,0,0,0,0.3093,0.3095,0.31,0.313,0.3139,0.3191,0.3169,0.3175,0.3209,0.3209,0.3228,0.3227,0.322,0.3253,0.3258,0.3308,0.3234,0.3349,0.3353,0.3357,0.3443,0.3455,0.3465,0,0,0,0,0,0.3091,0.3098,0.3099,0.3103,0.3139,0.3193,0.3203,0.3221,0.3211,0.3241,0.3245,0.3227,0.3283,0.3256,0.3261,0.3314,0.3347,0.3352,0.3357,0.3438,0.3453,0.3465,0,0,0,0,0,0,0.309,0.3101,0.3102,0.3113,0.3157,0.3194,0.3219,0.3234,0.3265,0.3257,0.3253,0.3254,0.3309,0.3297,0.3267,0.3363,0.3314,0.3321,0.3375,0.3388,0.3399,0.3441,0.3236,0,0,0,0,0,0.309,0.3095,0.3126,0.314,0.3157,0.3192,0.3218,0.3234,0.326,0.3273,0.329,0.3305,0.3336,0.3346,0.3372,0.3418,0.3433,0.3456,0.3467,0.3476,0.3515,0.3624,0.3649,0.3376,0.3376,0.3376,0,0,0.3093,0.3101,0.3105,0.3141,0.3168,0.321,0.3205,0.3249,0.3294,0.3269,0.3333,0.335,0.3359,0.3417,0.344,0.3409,0.3545,0.3483,0.3491,0.3525,0.3632,0.3659,0.3683,0.338,0.3379,0.3378,0,0,0.3109,0.3111,0.3125,0.316,0.3204,0.3232,0.3248,0.3301,0.3334,0.3395,0.3395,0.3439,0.3481,0.3508,0.3521,0.3608,0.3607,0.3619,0.3704,0.3809,0.3833,0.3854,0.3833,0.3852,0.3616,0.3616,0.3616,0,0.3116,0.3133,0.3146,0.3176,0.3209,0.3242,0.3285,0.3333,0.3396,0.3447,0.3421,0.3544,0.3528,0.3628,0.3653,0.3635,0.3668,0.3648,0.3826,0.3848,0.3869,0.3842,0.3862,0.3621,0.3621,0.362,0.362,0,0.314,0.3168,0.3184,0.3226,0.3268,0.3313,0.3369,0.3435,0.3472,0.3528,0.365,0.3662,0.3737,0.374,0.3718,0.3867,0.3828,0.3834,0.3795,0.3903,0.3865,0.3885,0.3628,0.3627,0.3625,0.3624,0,0,0.3122,0.3187,0.3195,0.3243,0.3298,0.3349,0.3425,0.3531,0.3622,0.3691,0.3817,0.387,0.3908,0.3928,0.393,0.4012,0.4127,0.3997,0.4,0.3977,0.4303,0.4144,0.4148,0.4197,0.4203,0.4208,0.419,0,0.3146,0.3208,0.3236,0.3329,0.3374,0.3437,0.3514,0.3613,0.3708,0.3841,0.3904,0.4017,0.3971,0.4027,0.4107,0.4154,0.4199,0.4127,0.4201,0.4201,0.4053,0.4174,0.3848,0.3798,0.4208,0.4212,0.4214,0,0.3154,0.3205,0.3276,0.3401,0.3429,0.3494,0.3654,0.3742,0.3912,0.3985,0.412,0.4182,0.4307,0.4255,0.4393,0.4367,0.4346,0.4356,0.4356,0.4206,0.4084,0.3774,0.3818,0.4246,0.4243,0.4241,0.4239,0,0.3136,0.3243,0.3306,0.334,0.3471,0.3546,0.3638,0.3795,0.3904,0.4112,0.4211,0.4364,0.4438,0.4522,0.4516,0.4492,0.4648,0.4596,0.4412,0.4394,0.4129,0.4079,0.4694,0.4694,0.4694,0.4695,0.4695,0,0.314,0.3205,0.3315,0.3361,0.3485,0.3569,0.3744,0.3852,0.4029,0.4155,0.4301,0.441,0.4532,0.4616,0.46,0.4565,0.4704,0.446,0.4423,0.4137,0.4092,0.4504,0.4483,0.4694,0.4694,0.4694,0.4694,0,0.3112,0.3166,0.3283,0.3433,0.3478,0.3587,0.3792,0.3928,0.4077,0.4249,0.4318,0.4484,0.4558,0.4622,0.4708,0.4628,0.4637,0.4569,0.4161,0.4079,0.4267,0.4251,0.4368,0.4363,0.4359,0.4356,0.4353,0,0.3104,0.315,0.3323,0.3382,0.3459,0.3623,0.3733,0.3932,0.4033,0.4262,0.4306,0.4457,0.447,0.4529,0.4459,0.4395,0.4507,0.404,0.3937,0.4304,0.4256,0.4245,0.4234,0.3571,0.3561,0.3554,0.3548,0,0.3114,0.3175,0.3264,0.338,0.351,0.3634,0.3771,0.3827,0.4022,0.4113,0.4162,0.421,0.4266,0.4058,0.4017,0.3941,0.4039,0.3882,0.4451,0.371,0.3554,0.3506,0.3521,0.3482,0.3489,0.3494,0.3497,0.35,0.3135,0.3184,0.3277,0.3377,0.3503,0.353,0.3544,0.3636,0.3689,0.3696,0.3866,0.3797,0.3839,0.3572,0.3446,0.3347,0.3606,0.3442,0.3465,0.3496,0.3414,0.3261,0.3111,0.3115,0.3119,0.3122,0.3125,0,0.313,0.3162,0.3246,0.3323,0.3359,0.3461,0.3476,0.3392,0.33,0.3387,0.3364,0.3062,0.2926,0.2964,0.271,0.2688,0.2664,0.2568,0.2526,0.2594,0.2654,0.2529,0.1991,0.1988,0.1984,0.1981,0,0,0.3128,0.3146,0.3148,0.3125,0.3167,0.3109,0.3048,0.2909,0.2857,0.2693,0.2626,0.2832,0.2905,0.2433,0.2361,0.2136,0.2347,0.204,0.2958,0.2981,0.3036,0.3173,0.306,0,0,0,0,0]},{"header":{"parameterUnit":"m.s-1","parameterCategory":2,"la1":30.2991,"la2":30.254,"lo1":-89.0895,"lo2":-89.0444,"dy":0.0017,"dx":0.0017,"nx":28,"ny":28,"refTime":"2025-05-28T03:00:00:Z","depth":"2","parameterNumber":3,"parameterNumberName":"V-component_of_CURRENTS"},"data":[0,0,0,0,0,0,0,0,0,0,0,0,0,0,0,0,0,0,0,0,0,0,0,0,0,0,0,0,0,0,0,0,0,0,0,0,0,0,0,0,0,0,0,0,0,0,0,0,0,0,0,0,0,0,0,0,0,0,0.0123,0.0122,0,0.0129,0.0129,0.013,0.0122,0.0121,0.0121,0.012,0.0104,0.0104,0.0104,0,0,0,0,0,0,0,0,0,0,0,0,0,0.014,0.0139,0.0123,0.0122,0.0122,0.0129,0.0129,0.013,0.0122,0.0121,0.0121,0.012,0.0104,0.0104,0.0104,0,0,0,0,0,0,0,0,0,0,0,0,0,0.014,0.0139,0.0123,0.0117,0.0117,0.0129,0.013,0.013,0.0122,0.0121,0.012,0.012,0.0104,0.0104,0.0104,0.0121,0,0,0.0104,0.0104,0,0,0,0,0,0,0,0,0.014,0.014,0.0118,0.0118,0.0117,0.0122,0.0129,0.0125,0.0122,0.0123,0.012,0.0119,0.0107,0.0107,0.0114,0.012,0.0119,0.0104,0.0105,0.0105,0.0105,0,0,0,0,0,0,0,0.014,0.014,0.0128,0.0118,0.0117,0.0127,0.0126,0.0129,0.0121,0.0123,0.0121,0.0118,0.0106,0.0114,0.0113,0.0119,0.0104,0.0105,0.0105,0.0105,0.0138,0.0139,0,0,0,0,0,0,0.0133,0.0139,0.0128,0.0128,0.0124,0.0127,0.0126,0.0123,0.0121,0.0119,0.0119,0.0118,0.0114,0.0113,0.0112,0.0149,0.0105,0.0105,0.0105,0.0137,0.0138,0.0139,0,0,0,0,0,0,0.0133,0.0132,0.0127,0.0132,0.0131,0.0127,0.0124,0.0124,0.0133,0.0118,0.0116,0.0128,0.0113,0.0112,0.0125,0.0147,0.0105,0.0105,0.0136,0.0138,0.0139,0.0211,0,0,0,0,0,0,0.0134,0.0132,0.0135,0.0131,0.0131,0.0147,0.0124,0.0124,0.0131,0.0129,0.0126,0.0123,0.0112,0.0125,0.0125,0.0147,0.0105,0.0135,0.0137,0.0138,0.0207,0.0214,0.022,0,0,0,0,0,0.0135,0.0143,0.0136,0.0134,0.0133,0.0148,0.015,0.0146,0.0132,0.0149,0.0142,0.0123,0.0134,0.0126,0.0126,0.0148,0.0134,0.0136,0.0138,0.0204,0.0213,0.022,0,0,0,0,0,0,0.0153,0.0143,0.0134,0.0139,0.0147,0.0146,0.0157,0.0152,0.0161,0.0157,0.014,0.0138,0.0156,0.0142,0.0133,0.016,0.0129,0.0131,0.018,0.0188,0.0194,0.0223,0.0105,0,0,0,0,0,0.0158,0.0161,0.0156,0.0163,0.0165,0.0162,0.0168,0.0167,0.0169,0.0172,0.0169,0.0163,0.0164,0.0168,0.0167,0.0187,0.0164,0.0198,0.0205,0.0211,0.0233,0.0232,0.0241,0.0145,0.0145,0.0145,0,0,0.0165,0.0161,0.0162,0.0167,0.017,0.0196,0.0165,0.018,0.0208,0.0169,0.0205,0.0187,0.0174,0.0196,0.0202,0.0188,0.0216,0.0213,0.0218,0.0238,0.0235,0.0244,0.0253,0.0147,0.0146,0.0146,0,0,0.0192,0.018,0.0196,0.021,0.0218,0.0222,0.0228,0.0234,0.0243,0.027,0.0246,0.0246,0.0252,0.0251,0.0248,0.029,0.025,0.0282,0.0344,0.0342,0.035,0.0357,0.0301,0.0303,0.0287,0.0288,0.0288,0,0.0204,0.0225,0.0207,0.0235,0.0258,0.0237,0.0278,0.0286,0.03,0.0321,0.0291,0.0309,0.0282,0.0319,0.0325,0.0307,0.0283,0.0316,0.0352,0.0359,0.0365,0.0306,0.0307,0.0291,0.0291,0.029,0.029,0,0.0249,0.0273,0.0287,0.0316,0.0338,0.037,0.0378,0.0403,0.04,0.041,0.0442,0.0409,0.0428,0.0404,0.0375,0.0411,0.0369,0.0359,0.0335,0.0379,0.0313,0.0313,0.0296,0.0295,0.0294,0.0293,0,0,0.0267,0.0311,0.0319,0.0366,0.039,0.0425,0.0464,0.0512,0.0568,0.0549,0.0616,0.0581,0.0564,0.056,0.052,0.0503,0.0491,0.0454,0.0452,0.0403,0.0452,0.0414,0.0408,0.0493,0.0495,0.0496,0.0374,0,0.0317,0.0395,0.04,0.0494,0.0543,0.0551,0.0605,0.0642,0.0664,0.0721,0.0677,0.072,0.0624,0.0643,0.061,0.0542,0.0501,0.0522,0.0414,0.041,0.0376,0.0412,0.0413,0.0307,0.0374,0.0374,0.0373,0,0.0365,0.0421,0.0511,0.0614,0.0637,0.0689,0.0794,0.0844,0.0893,0.0915,0.0929,0.09,0.0878,0.0794,0.0682,0.0704,0.0586,0.0505,0.0499,0.0448,0.0374,0.0282,0.0304,0.0372,0.0372,0.0372,0.0373,0,0.0411,0.0507,0.059,0.0623,0.072,0.0776,0.0835,0.0905,0.0992,0.1051,0.1116,0.1067,0.1068,0.0937,0.0751,0.073,0.0612,0.0562,0.0402,0.0394,0.0369,0.0359,0.0478,0.0478,0.0479,0.0479,0.0479,0,0.0467,0.0542,0.0626,0.068,0.0819,0.0854,0.1011,0.1058,0.1163,0.129,0.1229,0.1296,0.1109,0.1014,0.0818,0.0615,0.066,0.0424,0.0381,0.0388,0.0381,0.0427,0.0423,0.0474,0.0475,0.0476,0.0477,0,0.0505,0.0546,0.0673,0.0795,0.0843,0.0951,0.1136,0.1269,0.1327,0.149,0.152,0.1482,0.1345,0.1124,0.09,0.0715,0.0517,0.0423,0.0414,0.0374,0.0268,0.0269,0.0237,0.0235,0.0233,0.0232,0.0231,0,0.053,0.0591,0.0762,0.0861,0.0925,0.1089,0.1229,0.1347,0.1485,0.1604,0.1689,0.1602,0.1546,0.1188,0.0861,0.0519,0.0479,0.0296,0.026,0.0292,0.0253,0.0256,0.0259,0.0221,0.022,0.0219,0.0218,0,0.0602,0.0659,0.0775,0.097,0.1133,0.1321,0.1502,0.1625,0.177,0.1858,0.1922,0.1874,0.1556,0.121,0.0767,0.0533,0.0356,0.0265,0.0337,0.0294,0.0272,0.0235,0.024,0.021,0.0211,0.0211,0.0212,0.0212,0.0673,0.0773,0.0925,0.1115,0.1305,0.151,0.1653,0.1821,0.1988,0.2106,0.2059,0.1974,0.1629,0.1034,0.0654,0.0264,0.0291,0.0135,0.014,0.0146,0.0179,0.0157,0.0075,0.0075,0.0075,0.0075,0.0075,0,0.0777,0.0887,0.1061,0.1293,0.1498,0.1577,0.1821,0.1931,0.2084,0.2177,0.2184,0.1807,0.1431,0.1031,0.0455,0.0117,0.009,-0.0011,0.0034,0.0045,0.0054,0.0084,-0.0047,-0.0048,-0.0049,-0.005,0,0,0.084,0.1013,0.1098,0.1412,0.1573,0.1822,0.1947,0.2064,0.2143,0.2167,0.2117,0.2043,0.1553,0.1107,0.0639,0.0301,0.0249,0.0221,0.0355,0.0475,0.0488,0.0172,0.0234,0,0,0,0,0]}],[{"header":{"parameterUnit":"m.s-1","parameterCategory":2,"la1":30.2991,"la2":30.254,"lo1":-89.0895,"lo2":-89.0444,"dy":0.0017,"dx":0.0017,"nx":28,"ny":28,"refTime":"2025-05-28T03:00:00:Z","depth":"4","parameterNumber":2,"parameterNumberName":"U-component_of_CURRENTS"},"data":[0,0,0,0,0,0,0,0,0,0,0,0,0,0,0,0,0,0,0,0,0,0,0,0,0,0,0,0,0,0,0,0,0,0,0,0,0,0,0,0,0,0,0,0,0,0,0,0,0,0,0,0,0,0,0,0,0,0,0.1886,0.1886,0,0.1875,0.1874,0.1874,0.1907,0.1908,0.191,0.1911,0.1995,0.1996,0.1997,0,0,0,0,0,0,0,0,0,0,0,0,0,0.1866,0.1867,0.1886,0.1886,0.1886,0.1875,0.1874,0.1874,0.1907,0.1908,0.191,0.1911,0.1995,0.1996,0.1997,0,0,0,0,0,0,0,0,0,0,0,0,0,0.1863,0.1867,0.1886,0.1904,0.1906,0.1875,0.1874,0.1874,0.1906,0.1908,0.191,0.1912,0.1995,0.1996,0.1998,0.1966,0,0,0.2002,0.2003,0,0,0,0,0,0,0,0,0.1864,0.1864,0.1901,0.1903,0.1905,0.1898,0.1899,0.1911,0.1906,0.1902,0.1911,0.1913,0.1973,0.1976,0.1962,0.197,0.1973,0.2002,0.2003,0.2004,0.2004,0,0,0,0,0,0,0,0.1864,0.1864,0.1878,0.1901,0.1904,0.1889,0.1891,0.19,0.1925,0.1903,0.1906,0.191,0.1974,0.1961,0.1965,0.1975,0.2002,0.2003,0.2004,0.2005,0.2132,0.2134,0,0,0,0,0,0,0.1874,0.1864,0.1878,0.1878,0.1893,0.1889,0.1891,0.1895,0.1923,0.1929,0.1908,0.1912,0.1957,0.1963,0.1968,0.2062,0.2004,0.2005,0.2006,0.2129,0.2132,0.2135,0,0,0,0,0,0,0.1874,0.1875,0.1879,0.1874,0.1874,0.1888,0.1891,0.1894,0.1926,0.1927,0.1935,0.1945,0.1959,0.1966,0.2025,0.2062,0.2006,0.2007,0.2126,0.213,0.2133,0.2168,0,0,0,0,0,0,0.1873,0.1875,0.1899,0.1875,0.1875,0.1888,0.189,0.1892,0.1924,0.193,0.196,0.1967,0.1961,0.2023,0.2027,0.2063,0.2008,0.2123,0.2128,0.2132,0.2164,0.2172,0.218,0,0,0,0,0,0.1872,0.1887,0.19,0.1903,0.1901,0.1889,0.1888,0.1901,0.1925,0.1938,0.1974,0.1968,0.2056,0.2026,0.2029,0.2067,0.2121,0.2126,0.2132,0.216,0.2171,0.218,0,0,0,0,0,0,0.1889,0.1891,0.1905,0.1921,0.1923,0.1897,0.1916,0.1924,0.1957,0.1985,0.1988,0.1998,0.2068,0.2067,0.2034,0.2122,0.2092,0.2098,0.2112,0.2122,0.213,0.2144,0.2009,0,0,0,0,0,0.1904,0.1922,0.1914,0.1934,0.1938,0.1937,0.1943,0.1954,0.197,0.1987,0.201,0.2048,0.2082,0.2104,0.2132,0.2168,0.219,0.2201,0.2209,0.2216,0.2233,0.2323,0.2341,0.2153,0.2153,0.2153,0,0,0.1917,0.1923,0.1935,0.1941,0.1945,0.1943,0.1946,0.1969,0.1986,0.1992,0.2045,0.2081,0.2103,0.2152,0.2183,0.216,0.2275,0.2223,0.2228,0.2242,0.2331,0.2349,0.2366,0.2157,0.2156,0.2156,0,0,0.193,0.1959,0.197,0.1969,0.1988,0.1983,0.2001,0.2006,0.2036,0.2079,0.2103,0.2171,0.2202,0.2232,0.2248,0.2321,0.2322,0.2332,0.2372,0.2459,0.2475,0.2489,0.2506,0.2522,0.2327,0.2327,0.2327,0,0.1953,0.1953,0.1973,0.1973,0.1982,0.2005,0.2012,0.2029,0.2061,0.2104,0.2114,0.2226,0.2242,0.2316,0.2338,0.2339,0.2367,0.2324,0.2468,0.2483,0.2498,0.2512,0.2529,0.2329,0.2329,0.2328,0.2328,0,0.1949,0.1961,0.1967,0.1978,0.1999,0.2006,0.2032,0.208,0.2129,0.2153,0.2266,0.2304,0.238,0.2389,0.2378,0.2488,0.2466,0.2472,0.2437,0.2518,0.2528,0.2545,0.2332,0.2332,0.2331,0.233,0,0,0.1954,0.1963,0.1968,0.1974,0.2003,0.2013,0.2072,0.2124,0.2187,0.2251,0.2345,0.241,0.2468,0.2493,0.2512,0.2569,0.2669,0.256,0.2564,0.2565,0.2824,0.2627,0.2626,0.2706,0.271,0.2714,0.2776,0,0.1942,0.1935,0.196,0.1974,0.1966,0.2029,0.2072,0.2144,0.2225,0.2321,0.2411,0.2511,0.2494,0.2563,0.2619,0.2665,0.2723,0.2649,0.2757,0.2759,0.2565,0.2643,0.2727,0.2789,0.2793,0.2795,0.2797,0,0.1919,0.1913,0.1918,0.1962,0.1974,0.2008,0.2123,0.2171,0.2313,0.2391,0.2524,0.2604,0.2716,0.2707,0.2829,0.2784,0.282,0.2841,0.2845,0.2666,0.2596,0.2703,0.2828,0.2826,0.2824,0.2821,0.282,0,0.187,0.1894,0.1902,0.1905,0.1953,0.2016,0.2077,0.2206,0.2299,0.2474,0.2571,0.2708,0.2818,0.2887,0.2934,0.2907,0.3051,0.302,0.2876,0.286,0.3,0.2985,0.3144,0.3144,0.3143,0.3143,0.3143,0,0.1814,0.1822,0.1887,0.1868,0.1924,0.1997,0.2108,0.2191,0.2374,0.2481,0.2619,0.2727,0.2884,0.2979,0.2985,0.2963,0.3104,0.2897,0.2881,0.3007,0.2992,0.3009,0.2993,0.3146,0.3145,0.3145,0.3144,0,0.1732,0.1769,0.1768,0.1838,0.1886,0.1931,0.2126,0.2191,0.2375,0.2533,0.2612,0.2809,0.2901,0.2997,0.3118,0.3021,0.3026,0.2998,0.3103,0.309,0.2755,0.274,0.2819,0.2813,0.2808,0.2804,0.28,0,0.1677,0.1654,0.173,0.1761,0.1801,0.191,0.1967,0.2167,0.2265,0.2541,0.2591,0.2797,0.2888,0.287,0.2977,0.298,0.2961,0.2926,0.2854,0.2754,0.2732,0.2724,0.2717,0.2792,0.2791,0.279,0.2788,0,0.1546,0.1588,0.1601,0.1649,0.1714,0.1785,0.1915,0.2003,0.2224,0.2413,0.2536,0.2613,0.2711,0.2769,0.2811,0.2805,0.2913,0.2872,0.2882,0.2814,0.2722,0.2703,0.2701,0.2771,0.2773,0.2775,0.2776,0,0.1465,0.1458,0.149,0.1532,0.161,0.1649,0.1733,0.1854,0.1988,0.2313,0.2346,0.2515,0.2702,0.2681,0.2703,0.2692,0.2646,0.2542,0.2568,0.2588,0.2482,0.2329,0.2258,0,0,0,0,0,0.1377,0.1361,0.1376,0.1412,0.1483,0.1541,0.1686,0.1784,0.2025,0.205,0.2221,0.2298,0.2369,0.2454,0.2396,0.2579,0.264,0.2496,0.2528,0.2672,0.2693,0.2587,0,0,0,0,0,0,0.1318,0.1328,0.1327,0.1309,0.1338,0.1391,0.1486,0.163,0.1682,0.1937,0.1985,0.2157,0.2251,0.2394,0.2359,0.2382,0.235,0.2615,0.2608,0.2661,0.2679,0.2696,0.2594,0,0,0,0,0]},{"header":{"parameterUnit":"m.s-1","parameterCategory":2,"la1":30.2991,"la2":30.254,"lo1":-89.0895,"lo2":-89.0444,"dy":0.0017,"dx":0.0017,"nx":28,"ny":28,"refTime":"2025-05-28T03:00:00:Z","depth":"4","parameterNumber":3,"parameterNumberName":"V-component_of_CURRENTS"},"data":[0,0,0,0,0,0,0,0,0,0,0,0,0,0,0,0,0,0,0,0,0,0,0,0,0,0,0,0,0,0,0,0,0,0,0,0,0,0,0,0,0,0,0,0,0,0,0,0,0,0,0,0,0,0,0,0,0,0,0.0066,0.0066,0,0.0073,0.0073,0.0073,0.007,0.0069,0.0069,0.0069,0.0047,0.0046,0.0046,0,0,0,0,0,0,0,0,0,0,0,0,0,0.0072,0.0072,0.0066,0.0066,0.0066,0.0073,0.0073,0.0073,0.007,0.0069,0.0069,0.0068,0.0047,0.0047,0.0046,0,0,0,0,0,0,0,0,0,0,0,0,0,0.0074,0.0072,0.0066,0.0064,0.0064,0.0073,0.0073,0.0073,0.007,0.0069,0.0069,0.0068,0.0047,0.0047,0.0046,0.0053,0,0,0.0045,0.0045,0,0,0,0,0,0,0,0,0.0074,0.0074,0.0064,0.0064,0.0064,0.0068,0.0067,0.0065,0.007,0.0069,0.0069,0.0068,0.0051,0.005,0.0055,0.0052,0.0051,0.0045,0.0045,0.0044,0.0044,0,0,0,0,0,0,0,0.0074,0.0074,0.007,0.0064,0.0064,0.007,0.007,0.0067,0.0063,0.0069,0.0068,0.0067,0.005,0.0055,0.0054,0.0051,0.0045,0.0044,0.0044,0.0044,0.0052,0.0053,0,0,0,0,0,0,0.0069,0.0074,0.007,0.007,0.0066,0.007,0.007,0.0069,0.0064,0.0062,0.0067,0.0067,0.0056,0.0055,0.0053,0.0073,0.0044,0.0044,0.0044,0.0052,0.0052,0.0053,0,0,0,0,0,0,0.007,0.0069,0.007,0.0071,0.0071,0.007,0.0069,0.0069,0.0076,0.0062,0.0061,0.0074,0.0056,0.0054,0.0059,0.0071,0.0044,0.0043,0.0051,0.0052,0.0053,0.0104,0,0,0,0,0,0,0.007,0.0069,0.0072,0.0071,0.0071,0.0084,0.0069,0.0069,0.0075,0.0074,0.0067,0.0065,0.0055,0.0059,0.0058,0.007,0.0043,0.0051,0.0052,0.0052,0.0102,0.0107,0.0111,0,0,0,0,0,0.007,0.0076,0.0073,0.0072,0.0074,0.0085,0.0086,0.0084,0.0075,0.0087,0.008,0.0065,0.0064,0.006,0.0058,0.007,0.005,0.0051,0.0052,0.01,0.0106,0.0111,0,0,0,0,0,0,0.0081,0.0076,0.0072,0.0077,0.0083,0.0083,0.0091,0.0088,0.0093,0.0091,0.0075,0.0073,0.008,0.0068,0.0064,0.0074,0.0053,0.0054,0.009,0.0095,0.0099,0.0107,0.0043,0,0,0,0,0,0.0084,0.0088,0.0086,0.0092,0.0094,0.0094,0.0098,0.0099,0.0099,0.0101,0.0095,0.0087,0.0084,0.0084,0.0079,0.0089,0.006,0.0093,0.0097,0.0101,0.0106,0.0075,0.0077,0.0056,0.0056,0.0056,0,0,0.0089,0.0088,0.009,0.0095,0.0098,0.0117,0.0096,0.0108,0.0127,0.0098,0.0119,0.0103,0.0089,0.01,0.0102,0.0092,0.0091,0.0103,0.0106,0.0109,0.0076,0.0078,0.008,0.0057,0.0057,0.0057,0,0,0.0106,0.0101,0.0113,0.0124,0.0132,0.0136,0.0141,0.0145,0.0149,0.0165,0.0146,0.014,0.014,0.0133,0.0128,0.0153,0.0114,0.0148,0.018,0.015,0.0151,0.0152,0.0113,0.011,0.0152,0.0152,0.0152,0,0.0114,0.0132,0.012,0.0141,0.0162,0.0147,0.018,0.0181,0.0189,0.0195,0.0179,0.0171,0.0157,0.0166,0.0173,0.0164,0.0134,0.0163,0.0156,0.0156,0.0156,0.0115,0.0111,0.0155,0.0154,0.0154,0.0154,0,0.0145,0.0166,0.0176,0.0201,0.0219,0.0245,0.0249,0.0259,0.0256,0.0256,0.026,0.0235,0.0232,0.0221,0.0206,0.0203,0.0177,0.0164,0.0143,0.0161,0.0117,0.0112,0.0158,0.0157,0.0157,0.0156,0,0,0.0152,0.0191,0.0198,0.0234,0.026,0.0284,0.0308,0.0332,0.0351,0.0335,0.0353,0.0333,0.0309,0.0301,0.0273,0.0242,0.0212,0.0206,0.0203,0.0168,0.0134,0.0128,0.0121,0.0194,0.0194,0.0193,0.0101,0,0.0188,0.0249,0.0257,0.0329,0.0368,0.0372,0.0404,0.042,0.0416,0.0424,0.0382,0.0389,0.0343,0.0342,0.0303,0.0232,0.0202,0.0238,0.0121,0.0117,0.0111,0.0117,0.0192,0.0097,0.0095,0.0095,0.0094,0,0.0219,0.0266,0.034,0.0414,0.0431,0.0467,0.052,0.0545,0.0538,0.0534,0.0513,0.0476,0.0432,0.0392,0.0275,0.0298,0.0228,0.0165,0.016,0.0135,0.0102,0.0075,0.0084,0.0085,0.0086,0.0086,0.0087,0,0.0248,0.0325,0.0394,0.0421,0.0492,0.0527,0.0562,0.0579,0.0619,0.0602,0.0611,0.0545,0.0523,0.0413,0.0283,0.0279,0.0144,0.0124,0.0052,0.005,0.0059,0.0059,0.0055,0.0055,0.0055,0.0055,0.0056,0,0.0286,0.0344,0.0417,0.0458,0.0556,0.058,0.0664,0.0675,0.0706,0.0752,0.0673,0.0675,0.0528,0.0433,0.0301,0.0156,0.0158,0.0058,0.0029,0.0082,0.0085,0.0054,0.0055,0.0052,0.0053,0.0053,0.0054,0,0.0306,0.0346,0.0442,0.0535,0.0571,0.0643,0.0753,0.0799,0.081,0.0859,0.0861,0.0782,0.0651,0.0489,0.0313,0.0198,0.0049,0.0006,0.0069,0.0045,-0.0034,-0.0029,-0.0092,-0.0093,-0.0094,-0.0095,-0.0095,0,0.0318,0.0365,0.0501,0.0571,0.0619,0.0727,0.0794,0.0852,0.0904,0.092,0.0937,0.0844,0.0765,0.0505,0.0325,0.0074,0.0047,-0.0043,-0.0036,-0.0026,-0.0047,-0.0041,-0.0035,-0.0096,-0.0097,-0.0097,-0.0097,0,0.0356,0.0403,0.0489,0.0623,0.0716,0.0828,0.0923,0.0982,0.1032,0.1041,0.1016,0.0883,0.0739,0.0526,0.0341,0.0158,-0.0002,-0.0051,-0.0051,-0.0046,-0.0031,-0.005,-0.0044,-0.01,-0.0099,-0.0099,-0.0099,0,0.0389,0.0455,0.0558,0.0681,0.0795,0.0891,0.0951,0.1015,0.1075,0.1092,0.1082,0.0917,0.0836,0.057,0.0388,0.0214,0.0166,0.0094,0.0085,0.0086,0.0161,0.0207,0.0191,0,0,0,0,0,0.0425,0.0494,0.0604,0.0736,0.0841,0.0908,0.1015,0.1061,0.1114,0.1112,0.1111,0.0977,0.0721,0.0603,0.0432,0.0354,0.0118,0.0142,0.0027,-0.0114,-0.0111,-0.0054,0,0,0,0,0,0,0.0449,0.0552,0.0605,0.0747,0.0839,0.095,0.1026,0.1064,0.1073,0.1098,0.0972,0.0916,0.0671,0.0826,0.0424,0.037,0.0267,0.0028,0.0023,-0.0116,-0.0113,-0.0111,-0.0051,0,0,0,0,0]}]]